Location: ??????
(38.5153°N, 23.0340°E)
Time: 00:00:48
(UTC+00:00)

USA 81 - Pass Details

Date: 13 December 2025
Orbit: 783 x 785 km, 85.0° (Epoch: 14 January)

Event Time Altitude Azimuth Distance (km) Brightness Sun altitude
Rises 16:26:17 0° 358° (N) 3,282 7.1 -14.9°
Reaches altitude 10° 16:28:40 10° 1° (N) 2,349 6.3 -15.4°
Maximum altitude 16:33:55 70° 85° (E) 834 3.9 -16.4°
Drops below altitude 10° 16:39:08 10° 169° (S) 2,331 6.6 -17.3°
Sets 16:41:29 0° 171° (S) 3,255 7.3 -17.8°
